Date String (YYYY-MM-DD hh:mm:ss) UTC,Instrument flags,Ambient pressure (hPa),Sample flow (lpm),Bypass flow (lpm),Sample temperature (°C),Ambient temperature (°C),ASC tube jacket temperature (°C),LED temperature (°C),Box temperature (°C),Sample RH (%),Span deviation,Mass concentration (μg/m³),Mass concentration (μg/m³),Mass concentration (μg/m³)
DateTimeUTC,F1_M11,P_M11,Q1_M11,Q2_M11,T1_M11,T2_M11,T3_M11,T4_M11,T5_M11,U1_M11,ZSPAN_M11,X0_M11,X2_M11,X1_M11
2022-11-01 14:00:00,,0824.2,5.01,0.00,25.3,23.7,00.0,34.2,27.2,10.7,0000.0,0005.75,0002.49,0002.07
2022-11-01 14:01:00,,0824.2,5.01,0.00,25.3,23.7,00.0,34.2,27.2,10.7,0000.0,0006.15,0002.48,0002.03
2022-11-01 14:02:00,,0824.2,5.00,0.00,25.3,23.7,00.0,34.2,27.1,10.6,0000.0,0006.83,0002.53,0002.02
2022-11-01 14:03:00,,0824.2,4.98,0.00,25.3,23.7,00.0,34.2,27.2,10.6,0000.0,0007.30,0002.57,0002.03
2022-11-01 14:04:00,,0824.2,5.01,0.00,25.3,23.7,00.0,34.2,27.2,10.6,0000.0,0007.21,0002.61,0002.06
2022-11-01 14:05:00,,0824.2,5.01,0.00,25.3,23.7,00.0,34.2,27.1,10.8,0000.0,0006.27,0002.65,0002.09
2022-11-01 14:06:00,,0824.2,5.00,0.00,25.3,23.7,00.0,34.2,27.1,10.8,0000.0,0005.77,0002.66,0002.11
2022-11-01 14:07:00,,0824.2,4.99,0.00,25.3,23.8,00.0,34.2,27.2,10.8,0000.0,0005.73,0002.64,0002.13
2022-11-01 14:08:00,,0824.1,5.01,0.00,25.3,23.8,00.0,34.2,27.2,10.6,0000.0,0005.79,0002.68,0002.16
2022-11-01 14:09:00,,0824.2,5.00,0.00,25.3,23.8,00.0,34.2,27.2,10.6,0000.0,0005.20,0002.72,0002.18
2022-11-01 14:10:00,,0824.2,5.01,0.00,25.3,23.8,00.0,34.2,27.2,10.6,0000.0,0005.18,0002.73,0002.19
2022-11-01 14:11:00,,0824.2,4.98,0.00,25.3,23.8,00.0,34.2,27.2,10.6,0000.0,0005.23,0002.77,0002.23
2022-11-01 14:12:00,,0824.3,5.00,0.00,25.3,23.8,00.0,34.2,27.2,10.8,0000.0,0005.00,0002.77,0002.24
2022-11-01 14:13:00,,0824.2,5.00,0.00,25.3,23.8,00.0,34.2,27.2,10.6,0000.0,0004.72,0002.76,0002.27
2022-11-01 14:14:00,,0824.3,5.01,0.00,25.4,23.8,00.0,34.2,27.3,10.4,0000.0,0003.96,0002.75,0002.29
2022-11-01 14:15:00,,0824.2,5.00,0.00,25.4,23.9,00.0,34.2,27.2,10.5,0000.0,0003.98,0002.76,0002.30
2022-11-01 14:16:00,,0824.3,5.01,0.00,25.4,23.9,00.0,34.2,27.2,10.2,0000.0,0004.99,0002.82,0002.31
2022-11-01 14:17:00,,0824.3,5.00,0.00,25.4,23.9,00.0,34.2,27.2,10.1,0000.0,0006.34,0002.86,0002.34
2022-11-01 14:18:00,,0824.3,5.00,0.00,25.4,23.9,00.0,34.2,27.2,10.1,0000.0,0007.65,0002.95,0002.38
2022-11-01 14:19:00,,0824.3,4.99,0.00,25.4,23.9,00.0,34.2,27.2,10.1,0000.0,0007.68,0003.00,0002.42
2022-11-01 14:20:00,,0824.3,5.00,0.00,25.4,23.9,00.0,34.2,27.3,10.1,0000.0,0007.68,0003.04,0002.46
2022-11-01 14:21:00,,0824.2,4.99,0.00,25.4,23.9,00.0,34.2,27.3,10.2,0000.0,0007.66,0003.03,0002.49
2022-11-01 14:22:00,,0824.3,4.99,0.00,25.4,23.9,00.0,34.2,27.3,10.5,0000.0,0007.95,0003.03,0002.50
2022-11-01 14:23:00,,0824.2,5.00,0.00,25.4,23.9,00.0,34.2,27.3,10.7,0000.0,0007.92,0003.01,0002.49
2022-11-01 14:24:00,,0824.3,5.01,0.00,25.4,23.9,00.0,34.2,27.3,10.9,0000.0,0007.85,0002.99,0002.48
2022-11-01 14:25:00,,0824.3,5.00,0.00,25.4,23.9,00.0,34.2,27.3,10.9,0000.0,0008.27,0002.97,0002.46
2022-11-01 14:26:00,,0824.3,4.99,0.00,25.4,24.0,00.0,34.3,27.3,11.0,0000.0,0008.44,0003.01,0002.46
2022-11-01 14:27:00,,0824.3,5.00,0.00,25.4,24.0,00.0,34.3,27.3,11.1,0000.0,0008.18,0002.98,0002.44
2022-11-01 14:28:00,,0824.3,5.00,0.00,25.4,24.0,00.0,34.3,27.3,11.1,0000.0,0007.71,0002.95,0002.40
2022-11-01 14:29:00,,0824.3,5.00,0.00,25.4,24.0,00.0,34.3,27.3,11.0,0000.0,0006.58,0002.87,0002.35
2022-11-01 14:30:00,,0824.3,5.00,0.00,25.4,24.0,00.0,34.3,27.3,10.9,0000.0,0006.47,0002.78,0002.28
2022-11-01 14:31:00,,0824.3,5.01,0.00,25.5,24.0,00.0,34.3,27.3,10.9,0000.0,0006.55,0002.74,0002.21
2022-11-01 14:32:00,,0824.3,5.00,0.00,25.5,24.0,00.0,34.3,27.4,10.9,0000.0,0006.72,0002.74,0002.18
2022-11-01 14:33:00,,0824.3,5.00,0.00,25.5,24.0,00.0,34.3,27.4,11.0,0000.0,0006.73,0002.77,0002.16
2022-11-01 14:34:00,,0824.2,4.99,0.00,25.5,24.1,00.0,34.3,27.4,10.9,0000.0,0007.31,0002.78,0002.15
2022-11-01 14:35:00,,0824.2,4.99,0.00,25.5,24.1,00.0,34.3,27.4,10.9,0000.0,0007.44,0002.79,0002.15
2022-11-01 14:36:00,,0824.2,4.99,0.00,25.5,24.1,00.0,34.3,27.4,10.7,0000.0,0006.86,0002.80,0002.15
2022-11-01 14:37:00,,0824.2,5.00,0.00,25.5,24.1,00.0,34.3,27.4,10.9,0000.0,0006.52,0002.78,0002.15
2022-11-01 14:38:00,,0824.3,5.00,0.00,25.5,24.1,00.0,34.3,27.4,10.9,0000.0,0006.28,0002.75,0002.15
2022-11-01 14:39:00,,0824.4,5.00,0.00,25.5,24.2,00.0,34.3,27.4,10.9,0000.0,0005.95,0002.74,0002.17
2022-11-01 14:40:00,,0824.2,5.01,0.00,25.5,24.2,00.0,34.3,27.5,11.0,0000.0,0005.50,0002.74,0002.19
2022-11-01 14:41:00,,0824.2,5.01,0.00,25.5,24.2,00.0,34.3,27.5,11.2,0000.0,0005.49,0002.79,0002.22
2022-11-01 14:42:00,,0824.2,4.98,0.00,25.6,24.2,00.0,34.4,27.5,11.4,0000.0,0005.88,0002.81,0002.24
2022-11-01 14:43:00,,0824.2,5.01,0.00,25.6,24.2,00.0,34.4,27.5,11.3,0000.0,0006.08,0002.80,0002.25
2022-11-01 14:44:00,,0824.2,5.00,0.00,25.6,24.2,00.0,34.4,27.5,11.2,0000.0,0006.88,0002.81,0002.26
2022-11-01 14:45:00,,0824.3,4.99,0.00,25.6,24.3,00.0,34.4,27.5,11.3,0000.0,0006.52,0002.85,0002.28
2022-11-01 14:46:00,,0824.2,5.00,0.00,25.6,24.3,00.0,34.4,27.5,11.1,0000.0,0006.39,0002.87,0002.29
2022-11-01 14:47:00,,0824.3,5.00,0.00,25.6,24.3,00.0,34.4,27.6,10.7,0000.0,0006.52,0002.92,0002.33
2022-11-01 14:48:00,,0824.2,5.01,0.00,25.6,24.3,00.0,34.4,27.6,10.9,0000.0,0008.25,0002.90,0002.34
2022-11-01 14:49:00,,0824.2,5.00,0.00,25.7,24.3,00.0,34.4,27.6,10.8,0000.0,0008.46,0002.98,0002.37
2022-11-01 14:50:00,,0824.2,4.99,0.00,25.7,24.3,00.0,34.5,27.6,10.8,0000.0,0008.50,0003.03,0002.38
2022-11-01 14:51:00,,0824.2,4.99,0.00,25.7,24.4,00.0,34.5,27.6,10.8,0000.0,0008.59,0003.07,0002.39
2022-11-01 14:52:00,,0824.2,5.00,0.00,25.7,24.4,00.0,34.5,27.6,10.7,0000.0,0008.64,0003.10,0002.43
2022-11-01 14:53:00,,0824.2,5.02,0.00,25.7,24.4,00.0,34.5,27.6,11.2,0000.0,0008.91,0003.16,0002.46
2022-11-01 14:54:00,,0824.2,4.99,0.00,25.7,24.4,00.0,34.5,27.7,11.7,0000.0,0008.95,0003.14,0002.44
2022-11-01 14:55:00,,0824.2,4.99,0.00,25.7,24.4,00.0,34.5,27.7,11.4,0000.0,0008.44,0003.13,0002.42
2022-11-01 14:56:00,,0824.2,5.01,0.00,25.7,24.5,00.0,34.5,27.7,11.0,0000.0,0008.32,0003.12,0002.40
2022-11-01 14:57:00,,0824.4,5.01,0.00,25.8,24.5,00.0,34.5,27.7,10.9,0000.0,0008.30,0003.10,0002.40
2022-11-01 14:58:00,,0824.2,4.99,0.00,25.8,24.5,00.0,34.5,27.7,10.8,0000.0,0008.52,0003.12,0002.41
2022-11-01 14:59:00,,0824.3,5.00,0.00,25.8,24.5,00.0,34.6,27.7,10.8,0000.0,0006.95,0003.14,0002.42
